Lid_Strength_Index
-0 2 4 5 10 10 14 12 9 9 9 7 6 7 8 8 9 13 3 1 0 -0 -1 -1 -1 -2 -1 -1 -1 -1 -1 -2 -1 -1 -1 -2 -2 -2 -2 -2 -2 -2 -2 -2 -2 -2 -1 -1 -1
1 2 4 7 12 15 14 10 10 8 7 6 6 6 7 9 5 4 3 1 -0 -0 -1 -1 -1 -1 -1 -1 -1 -1 -1 -1 -1 -1 -1 -1 -2 -2 -2 -2 -2 -1 -2 -2 -2 -2 -2 -1 -1
3 3 7 9 12 14 14 10 9 7 6 7 7 5 7 8 4 4 2 1 0 -0 -1 -1 -1 -2 -2 -2 -1 -1 -1 -1 -1 -1 -1 -1 -1 -2 -2 -2 -2 -2 -2 -2 -2 -2 -2 -1 -1
6 6 7 11 13 11 10 9 8 7 7 6 6 8 5 3 4 2 1 1 1 0 -0 -1 -1 -2 -1 -2 -1 -1 -1 -1 -1 -1 -1 -1 -1 -2 -2 -2 -2 -2 -2 -1 -1 -1 -1 -1 -1
6 7 11 12 12 10 9 8 7 8 8 7 6 9 7 4 2 1 1 1 1 0 -0 -1 -1 -1 -2 -2 -1 -1 -1 -1 -1 -1 -1 -1 -2 -2 -2 -2 -2 -2 -2 -2 -1 -1 -1 -1 -1
8 8 12 14 12 9 9 8 7 8 7 7 7 8 7 3 2 2 1 2 1 0 -0 -1 0 -0 -1 -1 -2 -2 -2 -2 -2 -2 -1 -1 -2 -2 -2 -2 -2 -2 -2 -2 -1 -1 -1 -1 -1
8 11 13 13 12 11 9 7 8 8 7 8 6 9 6 4 2 2 2 1 1 1 0 -0 -0 0 1 -0 -1 -1 -2 -2 -2 -2 -2 -2 -2 -2 -2 -2 -2 -2 -2 -2 -2 -1 -1 -0 -0
8 10 12 11 11 11 8 8 7 7 8 5 5 8 9 5 2 2 2 2 2 1 1 0 0 -0 -0 0 1 0 -1 -1 -1 -1 -1 -1 -1 -1 -1 -1 -2 -2 -2 -2 -2 -2 -1 0 -0
7 12 14 12 11 10 8 8 8 7 7 6 6 6 4 3 2 3 3 3 2 1 1 1 1 0 -0 -0 0 1 1 -0 -0 -0 0 0 0 -0 -0 -0 -1 -2 -2 -3 -2 -2 -2 -1 -1
10 13 12 9 9 9 8 8 8 8 7 8 6 5 3 3 4 4 4 4 3 3 2 1 1 1 0 -0 -0 -0 -0 0 0 -0 -0 -0 0 0 -0 1 0 -1 -1 -2 -2 -2 -1 -0 1
10 12 9 8 7 7 8 8 8 8 10 7 7 5 6 6 5 4 4 4 4 3 2 2 1 1 1 1 -0 1 -1 -0 -0 -0 0 0 1 2 1 1 1 1 2 1 -0 -0 0 0 0
11 9 8 7 6 7 8 7 8 7 8 6 6 5 5 6 6 6 6 5 5 4 3 1 2 1 1 1 1 -0 0 -0 -0 -0 -0 1 0 1 1 2 2 2 1 2 2 2 1 1 0
9 9 7 6 6 7 7 8 8 9 7 6 5 5 6 6 6 5 5 5 4 4 4 3 1 2 1 2 1 1 0 -0 0 0 0 0 0 0 0 1 1 2 1 2 2 2 2 1 1
8 8 7 7 7 7 8 8 8 8 6 7 7 6 6 6 5 6 5 5 5 4 4 2 2 1 1 2 2 2 1 1 0 0 1 0 0 0 0 0 0 0 1 1 2 2 2 2 1
7 10 9 8 8 8 8 11 9 7 6 6 6 7 7 6 5 5 5 4 4 4 3 3 2 2 3 2 2 2 2 1 1 0 -0 1 -0 0 0 0 1 0 0 0 1 1 1 1 1
10 12 14 10 8 8 10 15 11 9 8 8 7 7 7 6 6 6 5 5 5 5 4 4 3 3 3 2 2 2 1 2 2 0 0 -0 -0 -0 0 1 1 0 0 0 1 1 1 1 1
12 17 15 12 9 9 11 14 9 7 8 9 9 8 7 7 7 7 6 6 5 5 5 4 3 3 2 3 2 1 2 1 1 1 -0 -0 -0 -0 -0 -0 -0 0 1 1 1 1 1 2 2
14 15 14 14 10 10 11 12 10 8 7 8 8 7 8 7 7 6 6 6 6 6 6 5 5 4 3 3 2 1 1 1 1 1 0 -0 0 0 0 0 0 0 0 1 1 1 1 1 1
11 13 14 13 10 11 12 11 10 9 9 9 9 8 8 7 7 7 7 7 8 8 8 7 6 5 5 4 3 3 3 2 3 3 1 1 2 2 2 1 1 1 1 1 1 1 2 2 1
11 13 13 11 9 11 11 12 10 9 9 9 9 8 7 8 8 8 9 10 10 11 10 10 9 7 7 6 5 3 3 4 3 4 4 5 6 6 6 5 4 4 3 3 2 2 2 2 1
12 13 13 13 11 11 13 15 13 10 8 8 8 8 8 8 9 10 11 12 12 12 11 11 10 9 9 8 5 2 3 4 5 5 7 8 9 9 8 8 6 6 5 6 5 5 3 3 2
14 10 10 12 13 17 13 19 14 12 11 10 9 10 9 9 10 11 12 12 12 13 12 11 11 11 10 10 9 7 7 9 9 8 8 9 9 10 9 8 7 7 6 6 5 4 4 3 3
12 9 10 11 14 15 15 17 15 12 12 11 10 10 10 10 11 12 12 12 13 13 13 13 12 12 12 12 11 10 10 10 10 10 10 10 10 10 10 9 9 8 8 7 7 6 5 5 4
9 10 11 11 13 20 15 16 17 14 12 12 11 10 10 11 12 12 12 13 14 14 14 14 13 13 13 13 13 12 12 13 12 12 12 12 11 11 11 10 10 9 9 8 8 7 6 6 6
10 13 18 19 19 20 15 16 15 13 12 11 11 12 12 12 13 13 14 15 15 15 15 14 14 14 14 14 14 14 13 13 14 13 13 13 13 13 13 12 11 10 9 8 8 7 7 7 8
12 13 18 22 21 20 16 18 15 12 11 11 10 11 12 13 13 14 14 15 15 15 15 15 15 15 14 15 15 15 14 14 14 14 14 14 13 13 12 12 11 10 9 9 8 9 9 9 9
13 15 11 16 20 20 19 16 14 12 13 12 12 12 13 13 13 14 14 15 16 16 16 15 15 15 15 15 15 15 15 15 15 14 14 14 13 12 12 12 12 11 10 10 10 10 10 10 10
11 9 16 18 25 24 21 20 18 15 14 13 13 13 13 13 13 14 15 15 15 15 16 15 15 16 15 15 15 15 15 15 15 14 14 14 13 13 13 12 12 12 11 11 11 11 11 11 11
12 13 13 13 18 22 23 20 15 14 13 12 12 11 12 13 13 14 14 15 15 15 16 16 16 16 16 16 16 15 15 15 15 15 14 14 13 13 13 12 12 12 13 12 13 12 12 12 11
11 13 13 19 19 19 19 20 12 12 12 11 11 11 12 12 12 13 14 14 15 16 16 16 17 16 16 16 15 15 15 15 15 15 14 14 14 13 13 12 12 13 13 13 13 14 13 13 12